Regional Weather Roundup
Issued by NWS

Home | Current Version | Previous Version | Graphics & Text | Print | Product List | Glossary Off
Versions: 1 2 3 4 5 6 7 8 9 10 11 12 13 14 15 16 17 18 19 20 21 22 23 24 25 26 27 28 29 30 31 32 33 34 35 36 37 38 39 40 41 42 43 44 45 46 47 48 49 50

000
ASUS43 KFSD 010210
RWRSD

WEATHER ROUNDUP FOR SOUTH DAKOTA
NATIONAL WEATHER SERVICE SIOUX FALLS SD
900 PM CDT SUN AUG 31 2014

NOTE: "FAIR" INDICATES FEW OR NO CLOUDS BELOW 12,000 FEET WITH NO
SIGNIFICANT WEATHER AND/OR OBSTRUCTIONS TO VISIBILITY.


SDZ001>005-009-010-012>017-010300-
NORTHWEST AND NORTH CENTRAL SOUTH DAKOTA

CITY           SKY/WX    TMP DP  RH WIND       PRES   REMARKS
BUFFALO          N/A     54  51  90 SE8       29.79F
FAITH            N/A     58  54  86 NW8       29.78R
MOBRIDGE       MOCLDY    63  60  90 N6        29.68S
$$

SDZ012>016-024>037-041>051-057-063-072>074-010300-
SOUTHWEST AND SOUTH CENTRAL SOUTH DAKOTA

CITY           SKY/WX    TMP DP  RH WIND       PRES   REMARKS
RAPID CTY ARPT MOCLDY    54  53  97 NW5       29.83S
PIERRE         LGT RAIN  65  59  81 NW8       29.69R
CUSTER         LGT RAIN  55  45  68 NW5       29.93R
ELLSWORTH AFB  MOCLDY    56  55  95 NW7       29.83S
PHILIP         CLOUDY    61  60  97 NW7       29.76R
PINE RIDGE     PTCLDY    56  52  86 W7        29.84S
WINNER         MOCLDY    65  61  87 NE5       29.73R
$$

SDZ004>011-016>023-039-040-010300-
NORTHEAST SOUTH DAKOTA

CITY           SKY/WX    TMP DP  RH WIND       PRES   REMARKS
ABERDEEN       PTCLDY    60  60 100 SW5       29.64F
WATERTOWN      CLOUDY    61  57  87 W6        29.65F
SISSETON         N/A     64  61  90 W3        29.61F
$$

SDZ017-020-022-023-036>040-048>070-010300-
SOUTHEAST SOUTH DAKOTA

CITY           SKY/WX    TMP DP  RH WIND       PRES   REMARKS
SIOUX FALLS    CLOUDY    64  60  87 N3        29.64R
HURON          PTCLDY    60  59  96 W5        29.64F
CHAMBERLAIN    PTCLDY    60  59  96 SW3       29.69R
MITCHELL       CLEAR     64  61  90 NW5       29.67R
YANKTON        MOCLDY    66  59  77 CALM      29.66R
$$

ABBREVIATIONS USED IN REMARKS
   TC - TEMPERATURE IN CELSIUS
  WCI - WIND CHILL INDEX
   HX - HEAT INDEX
  VSB - VISIBILITY



USA.gov is the U.S. government's official web portal to all federal, state and local government web resources and services.